| time (UTC) | temp F | wind direction | speed knots | gust knots | rain 1hr in | rain 24hr in | rain mn in | humidity % | barometer mb |
| 20260510081559 | 49 | 246 | 5.2 | 11.3 | 0.00 | 0.25 | 0.07 | 86 | 1013.5 |
| 20260510080100 | 49 | 230 | 7.0 | 13.0 | 0.00 | 0.24 | 0.07 | 86 | 1013.3 |
| 20260510074600 | 49 | 257 | 4.3 | 11.3 | 0.00 | 0.24 | 0.07 | 87 | 1013.2 |
| 20260510073100 | 49 | 210 | 5.2 | 13.0 | 0.00 | 0.24 | 0.07 | 88 | 1013.1 |
| 20260510071558 | 48 | 173 | 4.3 | 12.2 | 0.00 | 0.24 | 0.07 | 90 | 1013.1 |
| 20260510070058 | 47 | 237 | 5.2 | 11.3 | 0.00 | 0.24 | 0.07 | 90 | 1012.9 |
| 20260510064557 | 47 | 169 | 5.2 | 10.4 | 0.00 | 0.24 | 0.07 | 92 | 1012.9 |
| 20260510063059 | 46 | 226 | 5.2 | 11.3 | 0.00 | 0.24 | 0.07 | 92 | 1012.7 |
| 20260510061557 | 46 | 217 | 4.3 | 10.4 | 0.00 | 0.24 | 0.07 | 93 | 1012.7 |
| 20260510054559 | 45 | 224 | 3.5 | 14.8 | 0.00 | 0.24 | 0.07 | 93 | 1012.7 |
| 20260510053105 | 45 | 224 | 3.5 | 7.8 | 0.00 | 0.24 | 0.07 | 93 | 1012.4 |
| 20260510051558 | 45 | 232 | 3.5 | 8.7 | 0.00 | 0.24 | 0.07 | 93 | 1012.5 |
| 20260510050058 | 45 | 264 | 4.3 | 8.7 | 0.00 | 0.24 | 0.07 | 93 | 1012.4 |
| 20260510044557 | 45 | 209 | 1.7 | 10.4 | 0.00 | 0.24 | 0.07 | 93 | 1012.5 |
| 20260510043105 | 45 | 212 | 2.6 | 7.8 | 0.00 | 0.24 | 0.07 | 92 | 1012.6 |
| 20260510041600 | 45 | 194 | 2.6 | 9.6 | 0.00 | 0.24 | 0.07 | 92 | 1012.4 |
| 20260510040101 | 46 | 232 | 7.0 | 13.9 | 0.00 | 0.24 | 0.07 | 92 | 1012.5 |
| 20260510034557 | 46 | 247 | 9.6 | 16.5 | 0.00 | 0.24 | 0.07 | 92 | 1012.5 |
| 20260510033112 | 46 | 248 | 8.7 | 13.0 | 0.00 | 0.24 | 0.07 | 92 | 1012.6 |
| 20260510031558 | 46 | 214 | 7.0 | 13.9 | 0.00 | 0.24 | 0.07 | 92 | 1012.8 |
| 20260510030104 | 46 | 162 | 6.1 | 14.8 | 0.00 | 0.24 | 0.07 | 92 | 1012.8 |
| 20260510024610 | 45 | 312 | 3.5 | 12.2 | 0.00 | 0.24 | 0.07 | 92 | 1012.8 |
| 20260510023058 | 46 | 260 | 4.3 | 9.6 | 0.00 | 0.24 | 0.07 | 92 | 1012.7 |
| 20260510020100 | 46 | 239 | 6.1 | 10.4 | 0.00 | 0.24 | 0.07 | 92 | 1012.9 |
| 20260510014557 | 46 | 229 | 3.5 | 7.0 | 0.00 | 0.24 | 0.07 | 92 | 1013.1 |
| 20260510013057 | 46 | 264 | 6.1 | 13.9 | 0.00 | 0.24 | 0.07 | 92 | 1013.3 |
| 20260510011557 | 46 | 233 | 7.0 | 13.0 | 0.00 | 0.24 | 0.07 | 92 | 1013.4 |
| 20260510010109 | 46 | 263 | 4.3 | 11.3 | 0.00 | 0.24 | 0.07 | 92 | 1013.6 |
| 20260510004602 | 46 | 250 | 6.1 | 12.2 | 0.00 | 0.24 | 0.07 | 91 | 1013.6 |
| 20260510003103 | 46 | 224 | 3.5 | 8.7 | 0.00 | 0.24 | 0.07 | 92 | 1013.8 |
| 20260510001600 | 46 | 266 | 1.7 | 6.1 | 0.00 | 0.24 | 0.07 | 92 | 1013.8 |
| 20260509234601 | 46 | 229 | 1.7 | 9.6 | 0.00 | 0.24 | 0.07 | 92 | 1013.8 |
| 20260509233101 | 46 | 240 | 5.2 | 10.4 | 0.01 | 0.23 | 0.06 | 92 | 1013.5 |
| 20260509231601 | 46 | 257 | 5.2 | 15.6 | 0.06 | 0.23 | 0.06 | 92 | 1013.7 |
| 20260509230059 | 46 | 256 | 6.1 | 13.9 | 0.06 | 0.23 | 0.06 | 92 | 1013.6 |
| 20260509224600 | 47 | 221 | 7.8 | 21.7 | 0.06 | 0.23 | 0.06 | 92 | 1013.5 |
| 20260509223104 | 48 | 293 | 15.6 | 23.5 | 0.04 | 0.22 | 0.04 | 87 | 1013.6 |
| 20260509221603 | 50 | 172 | 4.3 | 13.9 | 0.00 | 0.17 | 0.00 | 88 | 1012.7 |
| 20260509214628 | 50 | 203 | 6.1 | 12.2 | 0.00 | 0.17 | 0.17 | 89 | 1013.0 |
| 20260509213103 | 50 | 246 | 5.2 | 12.2 | 0.00 | 0.17 | 0.17 | 89 | 1013.0 |
| 20260509211601 | 49 | 189 | 4.3 | 9.6 | 0.00 | 0.17 | 0.17 | 90 | 1012.8 |
| 20260509210107 | 49 | 190 | 0.9 | 2.6 | 0.00 | 0.17 | 0.17 | 91 | 1012.7 |
| 20260509204558 | 49 | 0 | 0.0 | 2.6 | 0.00 | 0.17 | 0.17 | 90 | 1012.6 |
| 20260509203115 | 50 | 0 | 0.0 | 0.9 | 0.00 | 0.17 | 0.17 | 90 | 1012.4 |
| 20260509201559 | 50 | 0 | 0.0 | 1.7 | 0.00 | 0.17 | 0.17 | 91 | 1012.3 |
| 20260509200100 | 50 | 0 | 0.0 | 1.7 | 0.00 | 0.17 | 0.17 | 91 | 1012.1 |
| 20260509194558 | 50 | 0 | 0.0 | 2.6 | 0.00 | 0.17 | 0.17 | 91 | 1012.0 |
| 20260509193111 | 50 | 135 | 0.0 | 0.9 | 0.00 | 0.17 | 0.17 | 90 | 1011.9 |
| 20260509191608 | 50 | 0 | 0.0 | 2.6 | 0.00 | 0.17 | 0.17 | 89 | 1011.8 |
| 20260509190100 | 51 | 150 | 0.0 | 1.7 | 0.00 | 0.17 | 0.17 | 87 | 1011.7 |
| 20260509184601 | 51 | 233 | 1.7 | 4.3 | 0.03 | 0.17 | 0.17 | 85 | 1011.7 |
| 20260509183100 | 50 | 228 | 0.9 | 4.3 | 0.07 | 0.17 | 0.17 | 86 | 1011.7 |
| 20260509181558 | 50 | 254 | 2.6 | 7.0 | 0.07 | 0.17 | 0.17 | 85 | 1011.5 |
| 20260509180106 | 51 | 257 | 5.2 | 8.7 | 0.07 | 0.16 | 0.16 | 85 | 1011.7 |
| 20260509174622 | 52 | 233 | 5.2 | 13.0 | 0.05 | 0.14 | 0.14 | 86 | 1011.8 |
| 20260509173100 | 53 | 225 | 6.1 | 11.3 | 0.01 | 0.10 | 0.10 | 83 | 1011.1 |
| 20260509171600 | 54 | 248 | 7.8 | 13.0 | 0.01 | 0.10 | 0.10 | 81 | 1010.8 |
| 20260509170109 | 56 | 252 | 5.2 | 10.4 | 0.00 | 0.08 | 0.08 | 78 | 1010.9 |
| 20260509164600 | 58 | 270 | 6.1 | 10.4 | 0.00 | 0.08 | 0.08 | 73 | 1010.5 |
| 20260509163101 | 59 | 160 | 5.2 | 13.0 | 0.00 | 0.08 | 0.08 | 71 | 1010.3 |
| 20260509161602 | 58 | 248 | 1.7 | 7.0 | 0.00 | 0.08 | 0.08 | 74 | 1010.2 |
| 20260509160058 | 57 | 157 | 1.7 | 8.7 | 0.01 | 0.08 | 0.08 | 79 | 1010.3 |
| 20260509154600 | 55 | 120 | 0.9 | 4.3 | 0.02 | 0.09 | 0.08 | 83 | 1010.7 |
| 20260509153117 | 53 | 118 | 1.7 | 3.5 | 0.04 | 0.09 | 0.08 | 88 | 1011.1 |
| 20260509151600 | 51 | 147 | 0.9 | 6.1 | 0.08 | 0.09 | 0.08 | 90 | 1011.6 |
| 20260509150058 | 51 | 283 | 5.2 | 17.4 | 0.07 | 0.07 | 0.07 | 89 | 1011.9 |
| 20260509144600 | 52 | 235 | 6.1 | 15.6 | 0.06 | 0.18 | 0.06 | 88 | 1011.7 |
| 20260509143059 | 54 | 234 | 15.6 | 26.9 | 0.03 | 0.15 | 0.03 | 81 | 1011.0 |
| 20260509141557 | 61 | 243 | 5.2 | 13.9 | 0.00 | 0.11 | 0.00 | 54 | 1010.3 |
| 20260509134557 | 63 | 130 | 3.5 | 13.9 | 0.00 | 0.16 | 0.00 | 52 | 1010.2 |
| 20260509133100 | 63 | 234 | 5.2 | 16.5 | 0.00 | 0.16 | 0.00 | 54 | 1010.2 |
| 20260509131600 | 63 | 188 | 6.1 | 15.6 | 0.00 | 0.16 | 0.00 | 54 | 1010.4 |
| 20260509130108 | 62 | 236 | 7.0 | 13.0 | 0.00 | 0.16 | 0.00 | 49 | 1010.6 |
| 20260509124601 | 62 | 120 | 6.1 | 20.0 | 0.00 | 0.18 | 0.00 | 54 | 1010.7 |
| 20260509123058 | 62 | 243 | 7.0 | 16.5 | 0.00 | 0.18 | 0.00 | 55 | 1010.8 |
| 20260509121625 | 61 | 281 | 5.2 | 13.0 | 0.00 | 0.18 | 0.00 | 56 | 1010.7 |
| 20260509120059 | 61 | 155 | 2.6 | 11.3 | 0.00 | 0.18 | 0.00 | 58 | 1010.6 |
| 20260509114604 | 60 | 188 | 3.5 | 11.3 | 0.00 | 0.18 | 0.00 | 61 | 1010.7 |
| 20260509113101 | 59 | 240 | 2.6 | 7.8 | 0.00 | 0.18 | 0.00 | 62 | 1010.9 |
| 20260509111559 | 59 | 247 | 1.7 | 7.8 | 0.00 | 0.18 | 0.00 | 64 | 1011.1 |
| 20260509110108 | 58 | 288 | 4.3 | 11.3 | 0.00 | 0.18 | 0.00 | 68 | 1011.2 |
| 20260509104559 | 59 | 0 | 2.6 | 7.0 | 0.00 | 0.18 | 0.00 | 65 | 1011.3 |
| 20260509103103 | 58 | 236 | 2.6 | 6.1 | 0.00 | 0.18 | 0.00 | 67 | 1011.3 |
| 20260509101619 | 57 | 0 | 1.7 | 5.2 | 0.00 | 0.18 | 0.00 | 69 | 1011.1 |
| 20260509100058 | 56 | 228 | 1.7 | 5.2 | 0.00 | 0.18 | 0.00 | 72 | 1011.2 |
| 20260509094609 | 55 | 157 | 1.7 | 5.2 | 0.00 | 0.18 | 0.00 | 73 | 1011.3 |
| 20260509093100 | 54 | 136 | 2.6 | 8.7 | 0.00 | 0.18 | 0.00 | 75 | 1011.3 |
| 20260509091607 | 54 | 272 | 1.7 | 5.2 | 0.00 | 0.18 | 0.00 | 76 | 1011.4 |
| 20260509090106 | 53 | 141 | 0.9 | 6.1 | 0.00 | 0.18 | 0.00 | 77 | 1011.1 |
| 20260509084603 | 52 | 252 | 3.5 | 7.0 | 0.00 | 0.18 | 0.00 | 80 | 1010.9 |
| 20260509083108 | 51 | 246 | 1.7 | 6.1 | 0.00 | 0.18 | 0.00 | 81 | 1010.8 |